Weather History for CYUL - November, 2012

Change the Weather History Date:

Thursday, November 8, 2012

  Actual Average Record
Temperature  
Mean Temperature 35 °F -  
Max Temperature 42 °F - - ()
Min Temperature 28 °F - - ()
Degree Days  
Heating Degree Days 30    
Moisture  
Dew Point 24 °F    
Average Humidity 65    
Maximum Humidity 75    
Minimum Humidity 45    
Precipitation  
Precipitation 0.00 in - - ()
Sea Level Pressure  
Sea Level Pressure 30.06 in    
Wind  
Wind Speed 13 mph ()    
Max Wind Speed 21 mph    
Max Gust Speed 24 mph    
Visibility 15.0 miles    
Events      
T = Trace of Precipitation, MM = Missing Value Source: Averaged Metar Reports

Daily Weather History Graph

Daily Weather History Graph

Search for Another Location

Airport or City:

Trip Planner

Search our weather history database for the weather conditions in past years. The results will help you decide how hot, cold, wet, or windy it might be!

Date:

Astronomy

Nov. 08, 2012 Rise Set
Actual Time 6:44 AM EST 4:32 PM EST
Civil Twilight 6:13 AM EST 5:03 PM EST
Nautical Twilight 5:37 AM EST 5:39 PM EST
Astronomical Twilight 5:03 AM EST 6:13 PM EST
Moon 12:20 AM EST (11/8) 1:26 PM EST (11/8)
Length of Visible Light 10h 50m
Length of Day
9h 47m
Waning Crescent, 33% of the Moon is Illuminated
Nov 8
Waning Crescent
Nov 13
New
Nov 20
First Quarter
Nov 28
Full
Dec 6
Last Quarter

Hourly Weather History & Observations

Time (EST) Temp. Windchill Dew Point Humidity Pressure Visibility Wind Dir Wind Speed Gust Speed Precip Events Conditions
12:00 AM 32.0 °F 21.2 °F 24.8 °F 75% 30.12 in 15.0 mi NNE 16.1 mph - N/A   Mostly Cloudy
1:00 AM 30 °F - 23 °F 67% 30.11 in 15 mi NNE 16.1 mph - -   Clear
1:00 AM 30.2 °F 18.1 °F 23.0 °F 75% 30.11 in 15.0 mi NNE 18.4 mph - N/A   Mostly Cloudy
2:00 AM 30.2 °F 17.4 °F 21.2 °F 69% 30.10 in 15.0 mi NNE 20.7 mph - N/A   Mostly Cloudy
3:00 AM 30.2 °F 20.2 °F 21.2 °F 69% 30.10 in 15.0 mi NNE 12.7 mph 23.0 mph N/A   Mostly Cloudy
4:00 AM 30.2 °F 18.9 °F 21.2 °F 69% 30.09 in 15.0 mi North 16.1 mph - N/A   Mostly Cloudy
5:00 AM 30.2 °F 19.8 °F 21.2 °F 69% 30.09 in 15.0 mi NNE 13.8 mph - N/A   Scattered Clouds
6:00 AM 30.2 °F 20.8 °F 21.2 °F 69% 30.09 in 15.0 mi NNE 11.5 mph 18.4 mph N/A   Scattered Clouds
7:00 AM 30 °F - 23 °F 65% 30.09 in 15 mi NNE 16.1 mph - -   Scattered Clouds
7:00 AM 30.2 °F 18.9 °F 23.0 °F 75% 30.09 in 15.0 mi NNE 16.1 mph 24.2 mph N/A   Mostly Cloudy
8:00 AM 32.0 °F 22.5 °F 23.0 °F 69% 30.10 in 15.0 mi North 12.7 mph - N/A   Mostly Cloudy
9:00 AM 33.8 °F 25.3 °F 24.8 °F 70% 30.09 in 15.0 mi NNE 11.5 mph 19.6 mph N/A   Overcast
10:00 AM 35.6 °F 25.2 °F 24.8 °F 65% 30.08 in 15.0 mi NNE 18.4 mph - N/A   Mostly Cloudy
11:00 AM 37.4 °F 27.5 °F 24.8 °F 60% 30.07 in 15.0 mi NNE 18.4 mph - N/A   Mostly Cloudy
12:00 PM 39.2 °F 30.8 °F 24.8 °F 56% 30.05 in 15.0 mi North 15.0 mph - N/A   Mostly Cloudy
1:00 PM 40 °F - 26 °F 45% 30.03 in 15 mi NNE 18.4 mph - -   Scattered Clouds
1:00 PM 41.0 °F 32.8 °F 26.6 °F 57% 30.03 in 15.0 mi NNE 16.1 mph - N/A   Mostly Cloudy
2:00 PM 41.0 °F 32.8 °F 26.6 °F 57% 30.02 in 15.0 mi North 16.1 mph - N/A   Mostly Cloudy
3:00 PM 41.0 °F 33.9 °F 26.6 °F 57% 30.01 in 15.0 mi North 12.7 mph - N/A   Mostly Cloudy
4:00 PM 39.2 °F 32.0 °F 24.8 °F 56% 30.01 in 15.0 mi North 11.5 mph - N/A   Mostly Cloudy
5:00 PM 37.4 °F 31.4 °F 24.8 °F 60% 30.02 in 15.0 mi North 8.1 mph - N/A   Mostly Cloudy
6:00 PM 35.6 °F 31.7 °F 26.6 °F 70% 30.04 in 15.0 mi NW 4.6 mph - N/A   Mostly Cloudy
7:00 PM 35 °F - 26 °F 60% 30.04 in 15 mi NW 5.8 mph - -   Mostly Cloudy
7:00 PM 35.6 °F 30.7 °F 26.6 °F 70% 30.04 in 15.0 mi NW 5.8 mph - N/A   Mostly Cloudy
8:00 PM 35.6 °F 27.5 °F 23.0 °F 60% 30.04 in 15.0 mi North 11.5 mph - N/A   Mostly Cloudy
9:00 PM 33.8 °F 27.0 °F 23.0 °F 65% 30.03 in 15.0 mi North 8.1 mph - N/A   Scattered Clouds
10:00 PM 32.0 °F 25.6 °F 23.0 °F 69% 30.02 in 15.0 mi North 6.9 mph - N/A   Partly Cloudy
11:00 PM 30.2 °F 25.4 °F 23.0 °F 75% 30.02 in 15.0 mi North 4.6 mph - N/A   Partly Cloudy